Location: Newark
(23.1300°N, 73.6109°E)
Time: 10:26:01
(UTC+00:00)

X-37B - Visible Passes

Search period start: 04 March 2021 00:00
Search period end: 14 March 2021 00:00
Orbit: 383 x 391 km, 45.0° (Epoch: 27 February)

Date Brightness Start Highest point End Pass type
(mag) Time Alt. Az. Time Alt. Az. Time Alt. Az.
04 Mar 3.1 00:06:36 12° N 00:08:28 18° NE 00:10:45 10° E visible
05 Mar 0.5 00:43:43 10° NW 00:46:48 74° SW 00:49:56 10° SE visible
05 Mar 1.8 23:48:39 39° NE 23:48:39 39° NE 23:51:26 10° ESE visible
06 Mar 3.1 14:38:24 10° SSW 14:38:58 14° S 14:38:58 14° S visible
07 Mar 1.7 00:26:04 25° WSW 00:26:36 26° SW 00:29:17 10° SSE visible
07 Mar 2.8 13:41:46 10° SSE 13:42:58 12° SE 13:44:10 10° ESE visible
07 Mar 4.0 15:16:19 10° WSW 15:16:34 12° WSW 15:16:34 12° WSW visible
07 Mar 3.6 23:31:14 11° SE 23:31:14 11° SE 23:31:27 10° SE visible
08 Mar 0.4 14:17:48 10° SW 14:20:59 78° SE 14:21:47 46° ENE visible
09 Mar 3.2 14:57:02 10° W 14:59:14 18° NW 14:59:14 18° NW visible
10 Mar 1.9 13:57:51 10° WSW 14:00:51 38° NW 14:03:52 10° NNE visible
12 Mar 3.2 13:38:34 10° W 13:40:50 18° NW 13:43:06 10° N visible
